TimeMDT,TemperatureF,Dew PointF,Humidity,Sea Level PressureIn,VisibilityMPH,Wind Direction,Wind SpeedMPH,Gust SpeedMPH,PrecipitationIn,Events,Conditions,WindDirDegrees,DateUTC
12:53 AM,64.9,14.0,14,29.64,10.0,NW,5.8,-,N/A,,Clear,310,2013-06-21 06:53:00
1:53 AM,66.0,12.9,13,29.66,10.0,West,6.9,-,N/A,,Clear,280,2013-06-21 07:53:00
2:53 AM,70.0,25.0,18,29.64,10.0,West,10.4,-,N/A,,Clear,270,2013-06-21 08:53:00
3:53 AM,70.0,37.0,30,29.65,10.0,West,6.9,-,N/A,,Clear,260,2013-06-21 09:53:00
4:53 AM,61.0,21.0,21,29.67,10.0,WSW,11.5,-,N/A,,Clear,250,2013-06-21 10:53:00
5:53 AM,59.0,33.1,38,29.69,10.0,West,8.1,-,N/A,,Clear,260,2013-06-21 11:53:00
6:53 AM,62.1,35.1,37,29.71,10.0,West,6.9,-,N/A,,Clear,270,2013-06-21 12:53:00
7:53 AM,66.9,28.0,23,29.74,4.0,West,4.6,-,N/A,,Haze,270,2013-06-21 13:53:00
8:53 AM,77.0,23.0,13,29.73,4.0,West,8.1,-,N/A,,Smoke,280,2013-06-21 14:53:00
9:53 AM,86.0,16.0,7,29.70,7.0,West,6.9,-,N/A,,Smoke,270,2013-06-21 15:53:00
10:53 AM,91.0,9.0,5,29.68,10.0,Variable,3.5,-,N/A,,Clear,0,2013-06-21 16:53:00
11:53 AM,91.0,10.0,5,29.66,10.0,Calm,Calm,-,N/A,,Clear,0,2013-06-21 17:53:00
12:53 PM,93.9,10.0,4,29.64,10.0,ESE,3.5,-,N/A,,Clear,110,2013-06-21 18:53:00
1:53 PM,96.1,8.1,4,29.60,10.0,ESE,13.8,20.7,N/A,,Clear,120,2013-06-21 19:53:00
2:53 PM,98.1,7.0,4,29.57,10.0,South,10.4,21.9,N/A,,Clear,190,2013-06-21 20:53:00
3:53 PM,99.0,8.1,4,29.54,10.0,Variable,6.9,-,N/A,,Clear,0,2013-06-21 21:53:00
4:53 PM,96.1,8.1,4,29.55,10.0,SW,5.8,-,N/A,,Clear,220,2013-06-21 22:53:00
5:53 PM,95.0,12.0,5,29.54,10.0,SW,10.4,-,N/A,,Clear,220,2013-06-21 23:53:00
6:53 PM,91.9,10.9,5,29.56,6.0,West,15.0,24.2,N/A,,Haze,270,2013-06-22 00:53:00
7:53 PM,89.1,12.9,6,29.57,9.0,WSW,15.0,-,N/A,,Smoke,250,2013-06-22 01:53:00
8:53 PM,81.0,12.9,8,29.59,9.0,NW,9.2,-,N/A,,Smoke,310,2013-06-22 02:53:00
9:53 PM,79.0,15.1,9,29.59,8.0,WSW,8.1,-,N/A,,Smoke,250,2013-06-22 03:53:00
10:40 PM,73.4,14.0,10,29.84,2.5,West,6.9,-,N/A,,Haze,280,2013-06-22 04:40:00
10:53 PM,73.9,12.9,10,29.60,2.5,NW,9.2,-,N/A,,Haze,320,2013-06-22 04:53:00
11:35 PM,73.4,12.2,10,29.84,3.0,NW,12.7,-,N/A,,Haze,320,2013-06-22 05:35:00
11:53 PM,73.9,14.0,10,29.61,4.0,WNW,10.4,-,N/A,,Haze,290,2013-06-22 05:53:00